Regional Weather Roundup
Issued by NWS

Home | Current Version | Previous Version | Graphics & Text | Print | Product List | Glossary On
Versions: 1 2 3 4 5 6 7 8 9 10 11 12 13 14 15 16 17 18 19 20 21 22 23 24 25 26 27 28 29 30 31 32 33 34 35 36 37 38 39 40 41 42 43 44 45 46 47 48 49 50
000
ASUS43 KDTX 021310
RWRMI
MICHIGAN HOURLY REGIONAL WEATHER ROUNDUP
NATIONAL WEATHER SERVICE DETROIT/PONTIAC MI
800 AM EST MON MAR 02 2015

NOTE: "FAIR" INDICATES FEW OR NO CLOUDS BELOW 12,000 FEET WITH NO
SIGNIFICANT WEATHER AND/OR OBSTRUCTION TO VISIBILITY.

MIZ047>049-052>055-059>063-066>070-074>076-081>083-021400-
SOUTHEAST LOWER MICHIGAN

CITY           SKY/WX    TMP DP  RH WIND       PRES   REMARKS
ADRIAN         PTCLDY    12   9  87 SW7       30.41R FOG     WCI   1
ALMA           CLEAR     15   9  76 W7        30.37R WCI   5
ANN ARBOR      CLEAR     17   9  70 W9        30.37R WCI   6
BAD AXE        CLEAR     16  10  77 W9        30.32R WCI   5
CARO           CLEAR     15   8  73 W8        30.34R WCI   4
DETROIT CITY   CLEAR     24  11  57 W8        30.37R WCI  15
DETROIT        PTCLDY    21  11  65 W8        30.39R WCI  11
FLINT          CLEAR     18   8  65 W12       30.36R WCI   5
GROSSE ILE     CLEAR     19  16  86 W5        30.38R WCI  13
HILLSDALE      PTCLDY    16  11  80 W6        30.37R WCI   7
HOWELL         CLEAR     16   9  71 W8        30.36R WCI   6

CITY           SKY/WX    TMP DP  RH WIND       PRES   REMARKS
JACKSON        CLEAR     14   8  77 W7        30.38R WCI   4
LAMBERTVILLE   CLEAR     18  12  79 W3        30.41R HAZE
LANSING        CLEAR     17   9  70 W8        30.38R WCI   7
LAPEER         FAIR      18  10  69 W8        30.34R WCI   8
MASON          CLEAR     17   9  71 W6        30.38R WCI   8
MONROE         CLEAR      9   7  92 W6        30.39R WCI  -1
MT. CLEMENS    CLEAR     21  11  65 W9        30.33R WCI  11
PONTIAC        CLEAR     17   9  70 W10       30.34R WCI   5
PORT HOPE        N/A     21  11  65 NW15G23   30.28R WCI   8
PORT HURON     CLEAR     19  10  68 W5        30.33R WCI  13
TRI CITIES     CLEAR     16   8  71 W10       30.36R WCI   4
TROY           CLEAR     23  12  62 W6        30.38R WCI  16
SAGINAW HB     CLEAR     19  10  68 W10       30.35R WCI   8
$$
MIZ043>046-050>051-056>058-064>065-071>073-077>080-021400-
SOUTHWEST LOWER MICHIGAN

CITY           SKY/WX    TMP DP  RH WIND       PRES   REMARKS
BATTLE CREEK   CLEAR     13   7  77 SW7       30.39R WCI   3
BENTON HARBOR  CLEAR     20  15  81 W6        30.43R WCI  12
BIG RAPIDS     FLURRIES  19  13  79 W5        30.34R WCI  12
COLDWATER      PTCLDY    11   8  88 SW7       30.39R FOG     WCI   0
FREMONT        FAIR      12   7  79 W3        30.37R
HOLLAND        CLEAR     22  14  71 NW3       30.41R
GRAND RAPIDS   PTCLDY    17  10  74 W7        30.39R WCI   8
IONIA          FAIR      20  11  69 W7        30.37R WCI  11
KALAMAZOO      CLEAR     12   8  84 W7        30.40R WCI   1
LUDINGTON      CLOUDY    23  11  60 NW12      30.39R WCI  12
MARSHALL       CLEAR     15  10  80 CALM      30.38R
MOUNT PLEASANT CLEAR     17  10  71 W3        30.35R
MUSKEGON       PTCLDY    23  13  65 NW5       30.41R WCI  17
SOUTH HAVEN    PTCLDY    23  16  75 NW3       30.41S
$$
MIZ016>042-021400-
NORTHERN LOWER MICHIGAN

CITY           SKY/WX    TMP DP  RH WIND       PRES   REMARKS
ALPENA         CLEAR     18   9  68 W8        30.27R WCI   8
BEAVER ISLAND  PTCLDY    14  10  81 W8        30.33R WCI   3
BELLAIRE       MOCLDY    18   7  63 NW5       30.35R WCI  11
CADILLAC       FLURRIES  18  11  75 W8        30.29R WCI   8
CHARLEVOIX     CLEAR     16   9  74 W12G18    30.37R WCI   3
FRANKFORT      MOCLDY    20  10  64 NW9G16    30.38R WCI  10
GAYLORD        CLOUDY    15  10  80 NW9       30.25R WCI   3
GRAYLING       PTCLDY    16   6  65 NW9       30.29R WCI   4
HARBOR SPRINGS CLEAR     15  10  82 W3        30.32R
HOUGHTON LAKE  CLOUDY    13   7  77 W6        30.29R WCI   4
MANISTEE       CLOUDY    21   9  58 N9        30.38R WCI  11
OSCODA         CLEAR     14   9  80 W7        30.28R WCI   4
PELLSTON       CLEAR     14   5  67 W12       30.31R WCI   0
ROGERS CITY    CLEAR     16  10  78 W9        30.28R WCI   4
TRAVERSE CITY  FLURRIES  19  13  77 N3        30.35R
$$
MIZ007>008-015-021400-
EASTERN UPPER MICHIGAN

CITY           SKY/WX    TMP DP  RH WIND       PRES   REMARKS
KINROSS        CLOUDY    16  12  86 W12       30.25R WCI   3
MACKINAC ISLAN MOCLDY    15   9  78 W10G18    30.28R WCI   2
NEWBERRY       CLEAR     11   6  81 W9        30.27R WCI  -1
S. S. MARIE    FAIR      16   7  67 W15G23    30.24R WCI   1
MUNISING         N/A     20   8  60 NW8G22    30.32R WCI  10
$$
MIZ004>006-011>014-085-021400-
CENTRAL UPPER MICHIGAN

CITY           SKY/WX    TMP DP  RH WIND       PRES   REMARKS
MANISTIQUE     FLURRIES  15  10  77 W3        30.33R
ESCANABA       CLEAR      7   1  78 W5        30.38R WCI  -2
MENOMINEE      CLEAR      9   7  92 CALM      30.39R
SAWYER-GWINN   CLEAR      9   1  72 W5        30.30R WCI   0
$$
MIZ001>003-009>011-084-021400-
WESTERN UPPER MICHIGAN

CITY           SKY/WX    TMP DP  RH WIND       PRES   REMARKS
IRON MOUNTAIN  PTCLDY     8   3  80 W6        30.33R WCI  -2
HOUGHTON       CLEAR      9   0  67 W9        30.31R WCI  -4
COPPER HARBOR    N/A     12   2  64 N13       30.32R WCI  -3
IRONWOOD       CLEAR      9   7  92 W8        30.33S WCI  -4
$$

ABBREVIATIONS USED IN REMARKS
   TC - TEMPERATURE IN CELSIUS
  WCI - WIND CHILL INDEX
   HX - HEAT INDEX
  VSB - VISIBILITY



USA.gov is the U.S. government's official web portal to all federal, state and local government web resources and services.